Weather History for Zacatecas Airport, Mexico

Change the Weather History Date:

Saturday, May 25, 2013

  Actual Average Record
Temperature  
Mean Temperature 63 °F -  
Max Temperature 80 °F 80 °F 91 °F (2011)
Min Temperature 46 °F 52 °F 46 °F (2013)
Degree Days  
Heating Degree Days 2    
Growing Degree Days 13 (Base 50)    
Moisture  
Dew Point 44 °F    
Average Humidity 46    
Maximum Humidity 93    
Minimum Humidity 23    
Precipitation  
Precipitation 0.00 in - - ()
Sea Level Pressure  
Sea Level Pressure 30.31 in    
Wind  
Wind Speed 9 mph ()    
Max Wind Speed 23 mph    
Max Gust Speed 28 mph    
Visibility 9.4 miles    
Events Rain    
Averages and records for this station are not official NWS values.
T = Trace of Precipitation, MM = Missing Value Source: Averaged Metar Reports

Daily Weather History Graph

Daily Weather History Graph

Search for Another Location

Airport:

Trip Planner

Search our weather history database for the weather conditions in past years. The results will help you decide how hot, cold, wet, or windy it might be!

Date:

Astronomy

May. 25, 2013 Rise Set
Actual Time 7:06 AM CDT 8:29 PM CDT
Civil Twilight 6:41 AM CDT 8:53 PM CDT
Nautical Twilight 6:12 AM CDT 9:23 PM CDT
Astronomical Twilight 5:41 AM CDT 9:53 PM CDT
Moon 9:20 PM CDT (5/25) 7:33 AM CDT (5/25)
Length of Visible Light 14h 12m
Length of Day
13h 22m
Full, 100% of the Moon is Illuminated
May 25
Full
May 31
Last Quarter
Jun 8
New
Jun 16
First Quarter
Jun 23
Full

Hourly Weather History & Observations

Time (CDT) Temp. Windchill Dew Point Humidity Pressure Visibility Wind Dir Wind Speed Gust Speed Precip Events Conditions
12:45 AM 66.2 °F - 39.2 °F 37% 30.35 in 10.0 mi East 20.7 mph - N/A   Overcast
1:45 AM 46.4 °F 39.8 °F 44.6 °F 93% 30.31 in 10.0 mi ESE 16.1 mph - N/A   Overcast
3:45 AM 62.6 °F - 48.2 °F 59% 30.33 in 10.0 mi SE 6.9 mph 20.7 mph N/A   Mostly Cloudy
4:45 AM 60.8 °F - 48.2 °F 63% 30.33 in 10.0 mi SE 8.1 mph - N/A   Overcast
5:45 AM 60.8 °F - 48.2 °F 63% 30.33 in 10.0 mi SSE 10.4 mph - N/A   Mostly Cloudy
6:47 AM 57.2 °F - 46.4 °F 67% 30.33 in 8.0 mi South 5.8 mph - N/A   Mostly Cloudy
7:46 AM 59.0 °F - 46.4 °F 63% 30.36 in 10.0 mi Calm Calm - N/A   Overcast
8:49 AM 60.8 °F - 46.4 °F 59% 30.38 in 10.0 mi ESE 4.6 mph - N/A   Overcast
9:48 AM 66.2 °F - 48.2 °F 52% 30.38 in 10.0 mi Calm Calm - N/A   Mostly Cloudy
10:45 AM 69.8 °F - 48.2 °F 46% 30.36 in 8.0 mi ESE 11.5 mph 23.0 mph N/A   Mostly Cloudy
11:45 AM 71.6 °F - 44.6 °F 38% 30.35 in 10.0 mi Calm Calm - N/A   Mostly Cloudy
12:44 PM 75.2 °F - 44.6 °F 34% 30.33 in 8.0 mi SSE 6.9 mph 18.4 mph N/A   Scattered Clouds
2:04 PM 78.8 °F - 42.8 °F 28% 30.29 in 10.0 mi West 4.6 mph - N/A   Scattered Clouds
2:41 PM 80.6 °F - 42.8 °F 26% 30.28 in 10.0 mi South 12.7 mph - N/A   Mostly Cloudy
3:45 PM 80.6 °F - 39.2 °F 23% 30.24 in 10.0 mi SE 11.5 mph - N/A   Mostly Cloudy
4:45 PM 78.8 °F - 37.4 °F 23% 30.21 in 10.0 mi WNW 8.1 mph - N/A   Overcast
5:24 PM 75.2 °F - 39.2 °F 27% 30.24 in 3.0 mi SSW 23.0 mph - N/A Rain Widespread Dust
5:44 PM 68.0 °F - 44.6 °F 43% 30.25 in 8.0 mi SE 15.0 mph 26.5 mph N/A   Mostly Cloudy
6:44 PM 69.8 °F - 42.8 °F 38% 30.24 in 10.0 mi SE 16.1 mph 27.6 mph N/A   Mostly Cloudy
7:42 PM 68.0 °F - 42.8 °F 40% 30.24 in 10.0 mi SE 11.5 mph - N/A   Scattered Clouds
8:40 PM 66.2 °F - 42.8 °F 43% 30.26 in 10.0 mi ESE 12.7 mph - N/A   Mostly Cloudy
9:52 PM 64.4 °F - 44.6 °F 49% 30.32 in 10.0 mi ENE 11.5 mph - N/A   Mostly Cloudy
10:50 PM 62.6 °F - 42.8 °F 48% 30.36 in 10.0 mi North 11.5 mph - N/A   Mostly Cloudy
11:48 PM 60.8 °F - 42.8 °F 52% 30.38 in 10.0 mi NE 8.1 mph - N/A   Overcast